{"data":{"norad_id":39769,"epoch":"2026-05-25T04:08:31.729344Z","epoch_age_seconds":55989,"freshness":"FRESH","line1":"1 39769U 14029D   26145.17258946  .00004499  00000+0  38322-3 0  9996","line2":"2 39769  97.6526 214.1204 0003651  33.3781 326.7671 14.98261182650101","mean_motion":14.98261182,"eccentricity":0.0003651,"inclination_deg":97.6526,"raan_deg":214.1204,"arg_perigee_deg":33.3781,"mean_anomaly_deg":326.7671,"bstar":0.00038322,"rev_number":65010,"period_min":96.111413503871,"perigee_km":569.73111995251,"apogee_km":574.8063062042,"semimajor_km":6950.4057130784,"source":"CELESTRAK","updated_at":"2026-05-25T13:37:55.439444Z"}}